Content
SEND FEEDBACK

Daily
Averages
Monthly
Summary
France

TOULOUSE, FRANCE


Home > Europe > France
Elevation: 538 feet     Latitude: 43 33N     Longitude: 001 23E

WEATHER
 
SELECT A DAY
Number of Records: 277,573;   Date Range: 7/1/96 - 4/21/13
 
SHARE

PRINT THIS DATA

[ ← Previous Day ]
WEATHER ALMANAC - JANUARY 3, 2013
[ Next Day → ]
[ °C ]   °F
Weather ElementAverageHighLow
Temperature39.5 °F46.4 °F (2:30 pm)32 °F (5:30 am)
Dewpoint35.8 °F39.2 °F (2:00 pm)30.2 °F (5:30 am)
Humidity86.5 %100 % (3:30 am)69 % (1:00 pm)
Barometer30.68 in30.76 in (7:00 pm)30.57 in (12:30 am)
Wind Speed3.3 mph8.1 mph (9:00 pm)
Weather ElementAverage
Visibility6.4 mi
Wind DirectionE (85.9 °)

Weather ElementTotal
Precipitation---
Heating Degree Days25.8 (Base 65)
Averaged from 51 records on January 3, 2013
WEATHER CONDITIONS BREAKOUT
WIND DIRECTION BREAKOUT
WEATHER BY HOUR - JANUARY 3, 2013
[ °C ]   °F
Local TimeTemperatureDewpointHumidityBarometerVisibilityWind DirectionWind SpeedGust SpeedPrecipitationEventsConditions
12:30 AM37.4 °F33.8 °F87 %30.57 in6.2 miNW (310°)2.3 mph
1:00 AM36.0 °F34.0 °F89 %30.61 in12.0 miWSW (240°)4.6 mphClear
1:00 AM35.6 °F33.8 °F93 %30.57 in6.2 miWSW (240°)4.6 mph
1:30 AM35.6 °F32.0 °F87 %30.57 in6.2 miWSW (250°)3.5 mph
2:00 AM35.6 °F33.8 °F93 %30.60 in6.2 miSSW (200°)5.8 mph
2:30 AM35.6 °F33.8 °F93 %30.60 in6.2 miSSW (210°)4.6 mph
3:00 AM33.8 °F32.0 °F93 %30.60 in6.2 miVariable2.3 mph
3:30 AM33.8 °F33.8 °F100 %30.63 in6.2 miVariable3.5 mph
4:00 AM33.8 °F32.0 °F93 %30.63 in6.2 miVariable2.3 mph
4:30 AM33.8 °F32.0 °F93 %30.63 in6.2 miSouth (190°)4.6 mph
5:00 AM33.8 °F32.0 °F93 %30.63 in6.2 miVariable3.5 mph
5:30 AM32.0 °F30.2 °F93 %30.63 in6.2 miVariable3.5 mph
6:00 AM33.8 °F32.0 °F93 %30.63 in6.2 miVariable1.2 mph
6:30 AM32.0 °F30.2 °F93 %30.63 in6.2 miVariable2.3 mph
7:00 AM32.0 °F31.0 °F92 %30.69 in6.0 miWSW (240°)2.3 mphClear
7:00 AM32.0 °F30.2 °F93 %30.66 in6.2 miVariable2.3 mph
7:30 AM32.0 °F32.0 °F100 %30.66 in6.2 miSSW (200°)4.6 mph
8:00 AM32.0 °F30.2 °F93 %30.69 in6.2 miVariable2.3 mph
8:30 AM32.0 °F30.2 °F93 %30.69 in6.2 miSSE (160°)2.3 mph
9:00 AM32.0 °F32.0 °F100 %30.69 in6.2 miSouth (180°)5.8 mphPartly Cloudy
9:30 AM33.8 °F32.0 °F93 %30.69 in6.2 miSouth (180°)3.5 mph
10:00 AM37.4 °F33.8 °F87 %30.71 in6.2 miVariable2.3 mphScattered Clouds
10:30 AM39.2 °F35.6 °F87 %30.71 in6.2 miSSE (160°)2.3 mph
11:00 AM41.0 °F35.6 °F81 %30.71 in6.2 miVariable2.3 mphPartly Cloudy
11:30 AM44.6 °F37.4 °F76 %30.71 in6.2 miVariable2.3 mphPartly Cloudy
12:00 PM42.8 °F37.4 °F81 %30.71 in6.2 miNNE (30°)3.5 mph
12:30 PM44.6 °F37.4 °F76 %30.71 in6.2 miVariable2.3 mphMostly Cloudy
1:00 PM44.0 °F37.0 °F69 %30.75 in9.0 miNE (40°)3.5 mphClear
1:00 PM44.6 °F37.4 °F76 %30.71 in6.2 miNE (40°)3.5 mphPartly Cloudy
1:30 PM44.6 °F37.4 °F76 %30.71 in6.2 miEast (80°)4.6 mphPartly Cloudy
2:00 PM44.6 °F39.2 °F81 %30.71 in6.2 miENE (60°)5.8 mphPartly Cloudy
2:30 PM46.4 °F39.2 °F76 %30.69 in6.2 miNE (50°)3.5 mph
3:00 PM46.4 °F39.2 °F76 %30.69 in6.2 miNE (50°)3.5 mph
3:30 PM46.4 °F39.2 °F76 %30.69 in6.2 miNNE (20°)3.5 mphPartly Cloudy
4:00 PM46.4 °F39.2 °F76 %30.69 in6.2 miENE (60°)3.5 mph
4:30 PM46.4 °F39.2 °F76 %30.69 in6.2 miNNE (20°)4.6 mph
5:00 PM44.6 °F39.2 °F81 %30.71 in6.2 miNE (40°)4.6 mph
5:30 PM44.6 °F39.2 °F81 %30.71 in6.2 miNE (40°)3.5 mph
6:00 PM42.8 °F39.2 °F87 %30.71 in6.2 miVariable2.3 mphScattered Clouds
6:30 PM42.8 °F39.2 °F87 %30.71 in6.2 miNE (40°)3.5 mphMostly Cloudy
7:00 PM43.0 °F39.0 °F81 %30.76 in6.0 miNE (40°)2.3 mphClear
7:00 PM42.8 °F39.2 °F87 %30.74 in6.2 miNE (40°)2.3 mphMostly Cloudy
7:30 PM42.8 °F39.2 °F87 %30.74 in6.2 miSSE (150°)2.3 mphOvercast
8:00 PM42.8 °F39.2 °F87 %30.74 in6.2 miEast (100°)2.3 mphOvercast
8:30 PM42.8 °F39.2 °F87 %30.74 in6.2 miSSE (150°)3.5 mphOvercast
9:00 PM42.8 °F39.2 °F87 %30.74 in6.2 miSouth (190°)8.1 mphOvercast
9:30 PM42.8 °F39.2 °F87 %30.74 in6.2 miSouth (190°)6.9 mphOvercast
10:00 PM42.8 °F39.2 °F87 %30.74 in6.2 miVariable2.3 mphOvercast
10:30 PM42.8 °F39.2 °F87 %30.74 in6.2 miSouth (190°)2.3 mphOvercast
11:00 PM42.8 °F39.2 °F87 %30.74 in6.2 miCalmOvercast
11:30 PM42.8 °F39.2 °F87 %30.74 in6.2 miCalmOvercast
Hourly data recorded from LFBF, located miles away from Toulouse, France







STORIES FROM OUR PARTNERS